Home   Weather   Elbląg   Past weeks

Flag for Poland Past Weather in Elbląg, Poland — Yesterday and Last 2 Weeks

Now
35 °F

Passing clouds.


Feels Like: 35 °F
Forecast: 38 / 48 °F
Wind: 2 mph from Southwest

Location: Hel

Current Time: Apr 27, 2017 at 3:39:02 am

Latest Report: Apr 27, 2017 at 2:00 am


Visibility: 11 mi

Pressure: 29.90 "Hg

Humidity: 94%

Dew Point: 34 °F

Location of ElblągLocation

Past Weather in Elbląg — Graph

°F

Elbląg Temperature Yesterday

Maximum temperature yesterday: 48 °F (at 11:00 am)
Minimum temperature yesterday: 38 °F (at 12:00 am)
Average temperature yesterday: 42 °F

High & Low Weather Summary for the Past Weeks

 TemperatureHumidityPressure
High53 °F (Apr 21, 3:00 pm)97% (Apr 14, 2:00 am)30.56 "Hg (Apr 14, 2:00 am)
Low27 °F (Apr 17, 6:00 am)43% (Apr 20, 12:00 pm)29.47 "Hg (Apr 13, 5:00 am)
Average41 °F77%29.92 "Hg
* Reported Apr 12 2:00 am — Apr 27 2:00 am, Elbląg, Weather by CustomWeather, © 2017

Note: Actual official high and low records may vary slightly from our data, if they occured in-between our weather recording intervals... More about our weather records

Advertising

Elbląg Weather History for the Previous 24 Hours

Scroll right to see more
 ConditionsComfort  
Time TempWeatherWind HumidityBarometerVisibility
2:00 am
Thu, Apr 27
35 °FPassing clouds.2 mph94%29.90 "Hg11 mi
1:00 am37 °FPassing clouds.2 mph92%29.91 "Hg9 mi
12:00 am39 °FPassing clouds.2 mph92%29.91 "Hg12 mi
11:00 pm
Wed, Apr 26
40 °FOvercast.2 mph93%29.91 "Hg12 mi
10:00 pm39 °FOvercast.1 mph92%29.91 "Hg6 mi
9:00 pm40 °FSprinkles. Overcast.1 mph89%29.91 "Hg5 mi
8:00 pm41 °FPartly sunny.1 mph82%29.89 "Hg16 mi
7:00 pm43 °FPartly sunny.1 mph74%29.89 "Hg16 mi
6:00 pm44 °FPartly sunny.3 mph71%29.88 "Hg16 mi
5:00 pm44 °FPartly sunny.5 mph68%29.88 "Hg16 mi
4:00 pm45 °FPartly sunny.5 mph68%29.88 "Hg16 mi
3:00 pm47 °FPartly sunny.5 mph65%29.87 "Hg16 mi
2:00 pm46 °FPartly sunny.5 mph67%29.86 "Hg16 mi
1:00 pm47 °FPartly sunny.3 mph62%29.85 "Hg16 mi
12:00 pm46 °FPartly sunny.7 mph64%29.84 "Hg16 mi
11:00 am48 °FScattered clouds.5 mph58%29.82 "Hg16 mi
10:00 am46 °FPartly sunny.6 mph70%29.80 "Hg12 mi
9:00 am43 °FScattered clouds.8 mph76%29.79 "Hg12 mi
8:00 am40 °FPartly sunny.8 mph80%29.78 "Hg12 mi
7:00 am39 °FPartly sunny.7 mph83%29.76 "Hg12 mi
6:00 am38 °FPartly sunny.7 mph87%29.74 "Hg12 mi
5:00 am38 °FPassing clouds.7 mph86%29.72 "Hg12 mi
4:00 am38 °FPassing clouds.6 mph86%29.71 "Hg12 mi
3:00 am38 °FClear.6 mph85%29.70 "Hg12 mi
Weather by CustomWeather, © 2017

See weather overviewHow to use our weather pages